[[{"header":{"parameterUnit":"m.s-1","parameterCategory":1,"la1":30.2991,"la2":30.254,"lo1":-89.0895,"lo2":-89.0444,"dy":0.0017,"dx":0.0017,"nx":28,"ny":28,"refTime":"2024-07-16T21:00:00:Z","depth":0,"parameterNumber":2,"parameterNumberName":"U-component_of_WINDS"},"data":[0,0,0,0,0,0,0,0,0,0,0,0,0,0,0,0,0,0,0,0,0,0,0,0,0,0,0,0,0,0,0,0,0,0,0,0,0,0,0,0,0,0,0,0,0,0,0,0,0,0,0,0,0,0,0,0,0,0,0.8088,0.809,0,0.8211,0.8213,0.8214,0.8285,0.8286,0.8286,0.8286,0.8411,0.8414,0.8417,0,0,0,0,0,0,0,0,0,0,0,0,0,0.7913,0.7916,0.8088,0.809,0.8091,0.8211,0.8213,0.8214,0.8285,0.8286,0.8286,0.8286,0.841,0.8414,0.8417,0,0,0,0,0,0,0,0,0,0,0,0,0,0.8008,0.7917,0.8088,0.8141,0.8147,0.8211,0.8213,0.8215,0.8285,0.8286,0.8286,0.8287,0.8409,0.8413,0.8418,0.8437,0,0,0.8432,0.8434,0,0,0,0,0,0,0,0,0.8002,0.8014,0.8132,0.8138,0.8144,0.8233,0.8197,0.8289,0.8285,0.8233,0.8286,0.8287,0.8351,0.8361,0.8383,0.8443,0.8449,0.8432,0.8435,0.8437,0.8438,0,0,0,0,0,0,0,0.7995,0.8009,0.8137,0.8133,0.8141,0.8158,0.8172,0.8214,0.8288,0.8237,0.8243,0.8257,0.8355,0.8378,0.8386,0.845,0.8432,0.8436,0.8439,0.8441,0.8531,0.8531,0,0,0,0,0,0,0.7981,0.8003,0.8133,0.8141,0.8073,0.8161,0.8177,0.8204,0.8288,0.8301,0.8256,0.8259,0.837,0.8381,0.8391,0.8418,0.8437,0.8441,0.8444,0.8532,0.8531,0.8531,0,0,0,0,0,0,0.7977,0.7992,0.8128,0.8073,0.8092,0.8164,0.8194,0.8207,0.823,0.8302,0.8315,0.8266,0.8371,0.8385,0.8425,0.8424,0.8443,0.8447,0.8532,0.8531,0.8531,0.8473,0,0,0,0,0,0,0.7971,0.799,0.7998,0.8073,0.8095,0.816,0.8194,0.8209,0.8238,0.8243,0.8315,0.8328,0.8372,0.8418,0.8429,0.843,0.8451,0.8532,0.8532,0.8531,0.8476,0.8471,0.8467,0,0,0,0,0,0.7965,0.7977,0.7999,0.8014,0.8107,0.816,0.8173,0.8224,0.8237,0.8246,0.8292,0.8325,0.8422,0.8421,0.8435,0.8437,0.8533,0.8532,0.8531,0.8478,0.8472,0.8467,0,0,0,0,0,0,0.7901,0.7988,0.8013,0.805,0.8097,0.8172,0.8185,0.8217,0.8261,0.8264,0.8326,0.8341,0.8375,0.8411,0.8408,0.846,0.8481,0.8483,0.8435,0.8431,0.8426,0.8417,0.8455,0,0,0,0,0,0.7891,0.7927,0.8002,0.8027,0.805,0.8113,0.8138,0.8174,0.8225,0.8245,0.8294,0.8342,0.8383,0.8409,0.8451,0.8481,0.8497,0.849,0.8485,0.8481,0.8482,0.8499,0.8496,0.8528,0.8528,0.8528,0,0,0.7871,0.7923,0.7942,0.8016,0.8056,0.8092,0.8129,0.8166,0.8192,0.8251,0.8291,0.8329,0.8386,0.8421,0.8439,0.8452,0.8476,0.848,0.8476,0.8479,0.8498,0.8495,0.8492,0.8528,0.8528,0.8528,0,0,0.7852,0.7896,0.7922,0.7962,0.8023,0.8065,0.8071,0.8141,0.8168,0.821,0.8254,0.8287,0.8357,0.8395,0.8424,0.8419,0.845,0.8431,0.8407,0.8423,0.8421,0.8419,0.8415,0.8414,0.8431,0.8431,0.8431,0,0.782,0.7875,0.7931,0.7964,0.7994,0.8049,0.8075,0.8111,0.8182,0.8201,0.8214,0.8302,0.8345,0.8389,0.8387,0.8409,0.8417,0.8422,0.8417,0.8415,0.8414,0.8412,0.841,0.8428,0.8429,0.8429,0.8429,0,0.7831,0.7869,0.7882,0.795,0.7982,0.8011,0.807,0.8095,0.8128,0.8168,0.8209,0.8262,0.8315,0.8328,0.8361,0.8376,0.8382,0.8405,0.8427,0.8407,0.8406,0.8405,0.8424,0.8425,0.8426,0.8427,0,0,0.7776,0.7873,0.7877,0.7908,0.7979,0.8009,0.804,0.8092,0.8111,0.8159,0.8185,0.8243,0.8264,0.8296,0.8334,0.8348,0.8338,0.8369,0.8371,0.836,0.8357,0.8338,0.8336,0.8359,0.836,0.836,0.8352,0,0.7767,0.7826,0.7876,0.7916,0.7951,0.8003,0.803,0.8075,0.8113,0.8148,0.819,0.8229,0.8255,0.8275,0.8291,0.8336,0.8338,0.8337,0.8384,0.8385,0.8366,0.8336,0.8317,0.8306,0.8352,0.8352,0.8352,0,0.7764,0.7809,0.7852,0.7919,0.7935,0.7959,0.8009,0.8042,0.8094,0.8121,0.8157,0.8195,0.8229,0.8248,0.8295,0.8293,0.8315,0.834,0.8341,0.8346,0.8366,0.8339,0.8305,0.8302,0.8351,0.8351,0.8352,0,0.7718,0.7789,0.7824,0.7849,0.7927,0.7942,0.7975,0.8029,0.8056,0.81,0.8118,0.8166,0.8192,0.8227,0.8277,0.8286,0.8318,0.8341,0.834,0.8338,0.8343,0.8342,0.831,0.8359,0.8359,0.8359,0.8359,0,0.7702,0.7726,0.7804,0.7825,0.7853,0.791,0.7936,0.7974,0.802,0.8049,0.8097,0.8123,0.8188,0.8221,0.826,0.8292,0.8304,0.8325,0.8335,0.832,0.8317,0.8335,0.8336,0.8359,0.8359,0.8359,0.8359,0,0.7654,0.7708,0.7749,0.782,0.7838,0.7855,0.7915,0.7937,0.7978,0.8013,0.8025,0.8088,0.813,0.8183,0.8242,0.8268,0.8294,0.8311,0.8277,0.8282,0.8277,0.8276,0.8254,0.8254,0.8303,0.8303,0.8303,0,0.764,0.7659,0.7732,0.7755,0.7787,0.7823,0.7851,0.7908,0.7935,0.7995,0.801,0.8055,0.8094,0.8157,0.8208,0.8252,0.8269,0.8258,0.8276,0.826,0.8267,0.8265,0.8266,0.8253,0.8253,0.8252,0.8251,0,0.7608,0.7633,0.7672,0.772,0.7752,0.7793,0.7835,0.7851,0.7916,0.7944,0.7987,0.8017,0.8076,0.812,0.817,0.8204,0.8238,0.8246,0.8247,0.8232,0.821,0.822,0.8263,0.8246,0.8246,0.8247,0.8247,0.8247,0.7576,0.7595,0.7649,0.769,0.7728,0.7766,0.779,0.7833,0.787,0.7923,0.7954,0.7995,0.8046,0.8118,0.815,0.8182,0.8195,0.8198,0.8199,0.8198,0.8192,0.8206,0.8192,0.8192,0.8192,0.8193,0.8193,0,0.7545,0.7582,0.762,0.7678,0.771,0.774,0.7788,0.7812,0.7848,0.7893,0.793,0.7978,0.8021,0.8074,0.812,0.8135,0.8152,0.8145,0.8144,0.8151,0.8179,0.8172,0.8131,0.8131,0.8131,0.8131,0.8131,0.8131,0.7533,0.7567,0.7598,0.765,0.7688,0.7728,0.7753,0.7788,0.7824,0.7876,0.7911,0.7946,0.7994,0.8043,0.8083,0.8097,0.8111,0.8099,0.8118,0.8143,0.8149,0.8154,0.8148,0.8102,0.8102,0.8087,0.8087,0.8087]},{"header":{"parameterUnit":"m.s-1","parameterCategory":1,"la1":30.2991,"la2":30.254,"lo1":-89.0895,"lo2":-89.0444,"dy":0.0017,"dx":0.0017,"nx":28,"ny":28,"refTime":"2024-07-16T21:00:00:Z","depth":0,"parameterNumber":3,"parameterNumberName":"V-component_of_WINDS"},"data":[0,0,0,0,0,0,0,0,0,0,0,0,0,0,0,0,0,0,0,0,0,0,0,0,0,0,0,0,0,0,0,0,0,0,0,0,0,0,0,0,0,0,0,0,0,0,0,0,0,0,0,0,0,0,0,0,0,0,4.7884,4.7884,0,4.7872,4.7871,4.7871,4.7858,4.7858,4.7857,4.7857,4.7844,4.7844,4.7843,0,0,0,0,0,0,0,0,0,0,0,0,0,4.7896,4.7896,4.7884,4.7884,4.7884,4.7872,4.7871,4.7871,4.7858,4.7858,4.7857,4.7857,4.7844,4.7844,4.7843,0,0,0,0,0,0,0,0,0,0,0,0,0,4.7888,4.7896,4.7884,4.7876,4.7875,4.7872,4.7871,4.7871,4.7858,4.7858,4.7857,4.7857,4.7844,4.7844,4.7843,4.7847,0,0,4.7843,4.7842,0,0,0,0,0,0,0,0,4.7889,4.7888,4.7877,4.7876,4.7875,4.7866,4.7871,4.7863,4.7858,4.7864,4.7857,4.7857,4.7851,4.785,4.7849,4.7847,4.7846,4.7842,4.7842,4.7842,4.7842,0,0,0,0,0,0,0,4.7889,4.7888,4.7879,4.7877,4.7876,4.7872,4.7871,4.7869,4.786,4.7864,4.7863,4.7861,4.7851,4.7849,4.7848,4.7846,4.7842,4.7842,4.7842,4.7842,4.7846,4.7847,0,0,0,0,0,0,4.7891,4.7889,4.788,4.7879,4.7881,4.7872,4.7871,4.7869,4.786,4.7858,4.7862,4.7861,4.785,4.7849,4.7848,4.7851,4.7842,4.7842,4.7842,4.7846,4.7846,4.7847,0,0,0,0,0,0,4.7891,4.789,4.788,4.7884,4.7882,4.7873,4.7871,4.7869,4.7867,4.7858,4.7856,4.7862,4.7849,4.7848,4.7847,4.7851,4.7842,4.7842,4.7846,4.7846,4.7846,4.7859,0,0,0,0,0,0,4.7892,4.7891,4.7892,4.7884,4.7882,4.788,4.7871,4.7869,4.7867,4.7866,4.7857,4.7856,4.7849,4.7848,4.7847,4.785,4.7841,4.7845,4.7846,4.7846,4.7858,4.786,4.7861,0,0,0,0,0,4.7892,4.7896,4.7892,4.7891,4.7884,4.7881,4.788,4.7872,4.7867,4.7869,4.7863,4.7856,4.7851,4.7848,4.7847,4.785,4.7845,4.7846,4.7846,4.7857,4.7859,4.7861,0,0,0,0,0,0,4.7905,4.7895,4.7891,4.7892,4.7887,4.7878,4.788,4.7874,4.787,4.7869,4.786,4.7858,4.7858,4.7854,4.7851,4.7853,4.7847,4.7847,4.7856,4.7857,4.7859,4.7859,4.7841,0,0,0,0,0,4.7908,4.7907,4.7898,4.79,4.7898,4.7889,4.7888,4.7882,4.7877,4.7875,4.7869,4.7864,4.7861,4.7859,4.7856,4.7858,4.7855,4.7859,4.7861,4.7862,4.7862,4.7862,4.7864,4.7849,4.7849,4.7849,0,0,4.7914,4.7909,4.7908,4.7902,4.7898,4.7896,4.7888,4.7887,4.7885,4.7874,4.7873,4.7869,4.7863,4.7863,4.7863,4.786,4.7866,4.7863,4.7864,4.7863,4.7863,4.7864,4.7866,4.7849,4.7849,4.7849,0,0,4.7925,4.7921,4.7921,4.7917,4.7911,4.7905,4.7906,4.7898,4.7894,4.7893,4.7885,4.7883,4.7878,4.7874,4.7871,4.788,4.7874,4.7879,4.7886,4.7887,4.7888,4.7889,4.7891,4.7892,4.788,4.788,4.788,0,4.7933,4.7931,4.7923,4.7922,4.7919,4.791,4.791,4.7907,4.79,4.7898,4.7895,4.7888,4.7883,4.7882,4.7885,4.7883,4.7882,4.788,4.7888,4.7889,4.789,4.7892,4.7893,4.788,4.788,4.788,4.788,0,4.7941,4.7939,4.7941,4.7934,4.7932,4.7932,4.7924,4.7922,4.7917,4.7912,4.791,4.7904,4.7899,4.7899,4.7894,4.7897,4.7895,4.789,4.7883,4.7892,4.7894,4.7895,4.7881,4.7881,4.7881,4.7881,0,0,4.7958,4.7948,4.7948,4.7945,4.7937,4.7936,4.7935,4.7931,4.7929,4.7925,4.7924,4.792,4.7915,4.7912,4.7906,4.7907,4.7913,4.7902,4.7901,4.7903,4.7916,4.7919,4.792,4.7909,4.7909,4.7909,4.7916,0,4.7967,4.7965,4.7958,4.7958,4.7957,4.7948,4.7947,4.7942,4.7937,4.7935,4.7929,4.7926,4.7921,4.7919,4.7919,4.7912,4.7915,4.7912,4.7907,4.7907,4.7909,4.7921,4.7925,4.7931,4.7917,4.7917,4.7917,0,4.7976,4.7972,4.7972,4.7965,4.7964,4.7963,4.7958,4.7956,4.795,4.7947,4.7943,4.7937,4.7935,4.793,4.7927,4.7925,4.7923,4.792,4.792,4.7918,4.7912,4.792,4.7933,4.7934,4.7918,4.7918,4.7918,0,4.7988,4.7983,4.7982,4.798,4.7971,4.7971,4.7967,4.7961,4.7959,4.7954,4.7953,4.7948,4.7946,4.7942,4.7935,4.7931,4.7933,4.7927,4.7929,4.7929,4.7929,4.7929,4.7942,4.7929,4.7929,4.7929,4.7929,0,4.7997,4.7998,4.7987,4.7987,4.7987,4.7979,4.7979,4.7974,4.7969,4.7967,4.796,4.7958,4.7949,4.7946,4.794,4.7938,4.7937,4.7934,4.7932,4.7934,4.7935,4.7932,4.7931,4.7929,4.7929,4.7929,4.7929,0,4.801,4.8003,4.8002,4.7994,4.7992,4.7992,4.7985,4.7984,4.7979,4.7976,4.7975,4.7967,4.7963,4.7956,4.795,4.7946,4.7946,4.7943,4.7948,4.7946,4.7949,4.7949,4.796,4.7961,4.7948,4.7948,4.7948,0,4.8016,4.8016,4.8008,4.8007,4.8003,4.8001,4.7998,4.799,4.7988,4.7982,4.7981,4.7977,4.7973,4.7968,4.7961,4.7956,4.7953,4.7957,4.7952,4.7954,4.7952,4.7952,4.7952,4.7958,4.7959,4.7959,4.7959,0,4.8028,4.8024,4.8021,4.8017,4.8014,4.8011,4.8006,4.8005,4.7996,4.7994,4.799,4.7988,4.7982,4.7977,4.7972,4.7968,4.7961,4.7961,4.7961,4.7963,4.7965,4.7963,4.795,4.796,4.796,4.796,4.796,4.796,4.8037,4.8036,4.803,4.8027,4.8023,4.8019,4.8018,4.8013,4.801,4.8004,4.8,4.7996,4.799,4.7982,4.7979,4.7975,4.7972,4.7973,4.7973,4.7973,4.7974,4.7966,4.7974,4.7974,4.7974,4.7974,4.7974,0,4.8047,4.8043,4.804,4.8035,4.8032,4.8027,4.8022,4.802,4.8017,4.8012,4.8009,4.8004,4.8,4.7993,4.7988,4.7987,4.7984,4.7986,4.7986,4.7985,4.7977,4.7977,4.7988,4.7988,4.7988,4.7988,4.7988,4.7988,4.8052,4.8051,4.8047,4.8044,4.8039,4.8036,4.8034,4.803,4.8026,4.8021,4.8018,4.8014,4.8008,4.8002,4.7998,4.7996,4.7994,4.7997,4.7994,4.7987,4.7985,4.7984,4.7984,4.7997,4.7997,4.8002,4.8002,4.8002]}]]